| time (UTC) | temp F | wind direction | speed MPH | gust MPH | rain 1hr in | rain 24hr in | rain mn in | humidity % | barometer mb |
| 20260504110236 | 53 | 289 | 0.0 | 2.0 | 0.00 | 0.01 | 0.01 | 88 | 1016.0 |
| 20260504100234 | 56 | 282 | 2.0 | 3.0 | 0.00 | 0.01 | 0.01 | 79 | 1014.5 |
| 20260504081236 | 61 | 271 | 7.0 | 9.0 | 0.00 | 0.01 | 0.01 | 65 | 1013.0 |
| 20260504080235 | 61 | 260 | 10.0 | 12.0 | 0.00 | 0.01 | 0.01 | 65 | 1012.6 |
| 20260504070235 | 63 | 270 | 10.0 | 15.0 | 0.00 | 0.01 | 0.01 | 59 | 1011.4 |
| 20260504060234 | 66 | 262 | 13.0 | 16.0 | 0.00 | 0.01 | 0.01 | 48 | 1010.4 |
| 20260504050233 | 68 | 271 | 7.0 | 17.0 | 0.00 | 0.01 | 0.01 | 41 | 1009.1 |
| 20260504045233 | 68 | 270 | 5.0 | 20.0 | 0.00 | 0.01 | 0.01 | 41 | 1009.0 |
| 20260503214449 | 101 | 119 | 56.0 | 2.0 | 0.00 | 0.00 | 0.00 | 100 | |
| 20260503213449 | 59 | 276 | 1.0 | 2.0 | 0.00 | 0.00 | 0.00 | 89 | 1005.2 |
| 20260503212448 | 59 | 319 | 2.0 | 4.0 | 0.00 | 0.00 | 0.00 | 89 | 1004.8 |
| 20260503211448 | 58 | 252 | 4.0 | 4.0 | 0.00 | 0.00 | 0.00 | 91 | 1004.8 |
| 20260503210449 | 57 | 282 | 0.0 | 4.0 | 0.00 | 0.00 | 0.00 | 92 | 1004.6 |
| 20260503205449 | 58 | 285 | 3.0 | 5.0 | 0.00 | 0.00 | 0.00 | 90 | 1004.6 |
| 20260503204449 | 57 | 300 | 2.0 | 5.0 | 0.00 | 0.00 | 0.00 | 91 | 1004.3 |
| 20260503203448 | 57 | 278 | 3.0 | 6.0 | 0.00 | 0.00 | 0.00 | 90 | 1004.1 |
| 20260503202448 | 58 | 243 | 2.0 | 8.0 | 0.00 | 0.00 | 0.00 | 89 | 1003.9 |
| 20260503201450 | 57 | 283 | 3.0 | 6.0 | 0.00 | 0.00 | 0.00 | 90 | 1003.9 |
| 20260503200448 | 58 | 352 | 1.0 | 7.0 | 0.00 | 0.00 | 0.00 | 88 | 1004.0 |
| 20260503195448 | 58 | 302 | 2.0 | 9.0 | 0.00 | 0.00 | 0.00 | 90 | 1004.0 |
| 20260503194448 | 57 | 257 | 3.0 | 7.0 | 0.00 | 0.00 | 0.00 | 94 | 1003.9 |
| 20260503193448 | 57 | 264 | 1.0 | 5.0 | 0.00 | 0.00 | 0.00 | 92 | 1003.7 |
| 20260503192449 | 57 | 34 | 0.0 | 2.0 | 0.00 | 0.00 | 0.00 | 95 | 1003.5 |
| 20260503191448 | 57 | 268 | 1.0 | 4.0 | 0.00 | 0.00 | 0.00 | 94 | 1003.4 |
| 20260503190448 | 57 | 291 | 0.0 | 3.0 | 0.00 | 0.00 | 0.00 | 93 | 1003.5 |
| 20260503185449 | 58 | 291 | 0.0 | 3.0 | 0.00 | 0.00 | 0.00 | 93 | 1003.4 |
| 20260503184448 | 58 | 263 | 3.0 | 2.0 | 0.00 | 0.00 | 0.00 | 91 | 1003.3 |
| 20260503183448 | 59 | 247 | 0.0 | 3.0 | 0.00 | 0.00 | 0.00 | 90 | 1002.9 |
| 20260503182449 | 60 | 297 | 2.0 | 12.0 | 0.00 | 0.00 | 0.00 | 88 | 1002.6 |
| 20260503181449 | 59 | 237 | 2.0 | 7.0 | 0.00 | 0.00 | 0.00 | 90 | 1002.7 |
| 20260503180448 | 59 | 300 | 1.0 | 7.0 | 0.00 | 0.00 | 0.00 | 90 | 1002.6 |
| 20260503175448 | 59 | 300 | 1.0 | 4.0 | 0.00 | 0.00 | 0.00 | 91 | 1002.8 |
| 20260503174449 | 59 | 272 | 1.0 | 7.0 | 0.00 | 0.00 | 0.00 | 92 | 1002.6 |
| 20260503173449 | 59 | 298 | 1.0 | 6.0 | 0.00 | 0.00 | 0.00 | 93 | 1002.4 |
| 20260503172449 | 60 | 260 | 0.0 | 5.0 | 0.00 | 0.00 | 0.00 | 94 | 1002.0 |
| 20260503171449 | 59 | 245 | 5.0 | 4.0 | 0.00 | 0.00 | 0.00 | 97 | 1002.3 |
| 20260503170449 | 60 | 290 | 1.0 | 4.0 | 0.00 | 0.00 | 0.00 | 98 | 1002.0 |
| 20260503150448 | 61 | 76 | 0.0 | 0.0 | 0.00 | 0.72 | 0.72 | 98 | 1001.2 |
| 20260503130449 | 61 | 273 | 0.0 | 0.0 | 0.08 | 0.72 | 0.72 | 97 | 1001.8 |